Location: Le Rocchette
(44.3500°N, 7.8333°E)
Time: 10:51:49
(UTC+00:00)

Cosmos 1766 Rocket - Pass Details

Date: 17 November 2019
Orbit: 606 x 632 km, 82.5° (Epoch: 11 December)

Event Time Altitude Azimuth Distance (km) Brightness Sun altitude
Rises 05:01:52 0° 202° (SSW) 2,849 6.9 -15.1°
Reaches altitude 10° 05:04:09 10° 208° (SSW) 1,951 6.0 -14.7°
Maximum altitude 05:08:18 46° 283° (WNW) 822 3.7 -14.0°
Drops below altitude 10° 05:12:30 10° 357° (N) 1,974 6.0 -13.3°
Sets 05:14:49 0° 3° (N) 2,886 6.9 -12.9°
